GOES 1 (SMS-C) (8366 NORAD) Tracking and Keplerian Element Data

This shows tracking and keplerian element data for the satellite.

Feedback or suggestion? Click here.




ElementValue
Catalog8366
NameGOES 1 (SMS-C)
Epoch Orbit18006
Epoch Day34.09584481
Epoch Year2025
RAAN283.6405
Inclination5.8795
Eccentricity0.0004675
Argument of Perigee343.2952
Mean Anonmoly179.2001
Mean Motion1.00285807
Decay Rate-2.15E-06
L11 08366U 75100A 25034.09584481 -.00000215 00000+0 00000+0 0 9996
L22 08366 5.8795 283.6405 0004675 343.2952 179.2001 1.00285807180063



Live tracking and technical data element details for GOES 1 (SMS-C) (NORAD 8366). GOES 1 (SMS-C) can be tracked NOW for your location showing map with azimuth and elevation plus other details from your city location.







IsCatalogInMostPopularTable: catalog: 8366, numindb: 312
Update: records affected: 1



GetName: 8366 GOES 1 (SMS-C)

Hit Count: updated at: Thu, 15 May 2025 10:43:30 GMT